[[{"header":{"parameterUnit":"m.s-1","parameterCategory":1,"la1":30.2991,"la2":30.254,"lo1":-89.0895,"lo2":-89.0444,"dy":0.0017,"dx":0.0017,"nx":28,"ny":28,"refTime":"2024-08-02T09:00:00:Z","depth":0,"parameterNumber":2,"parameterNumberName":"U-component_of_WINDS"},"data":[0,0,0,0,0,0,0,0,0,0,0,0,0,0,0,0,0,0,0,0,0,0,0,0,0,0,0,0,0,0,0,0,0,0,0,0,0,0,0,0,0,0,0,0,0,0,0,0,0,0,0,0,0,0,0,0,0,0,1.8843,1.8843,0,1.8865,1.8865,1.8865,1.881,1.8808,1.8806,1.8805,1.8833,1.8835,1.8838,0,0,0,0,0,0,0,0,0,0,0,0,0,1.8759,1.876,1.8843,1.8843,1.8844,1.8865,1.8865,1.8865,1.881,1.8808,1.8806,1.8804,1.8832,1.8835,1.8838,0,0,0,0,0,0,0,0,0,0,0,0,0,1.879,1.8761,1.8843,1.8818,1.8816,1.8865,1.8865,1.8866,1.8811,1.8808,1.8805,1.8803,1.8831,1.8835,1.8838,1.8913,0,0,1.8849,1.8851,0,0,0,0,0,0,0,0,1.8788,1.8793,1.8822,1.882,1.8818,1.8832,1.8846,1.8882,1.8811,1.8813,1.8805,1.8802,1.8835,1.8838,1.8848,1.8914,1.8916,1.885,1.8852,1.8853,1.8854,0,0,0,0,0,0,0,1.8786,1.8792,1.8852,1.8822,1.882,1.8808,1.881,1.8852,1.8839,1.8813,1.8809,1.8812,1.8834,1.8845,1.8849,1.8916,1.8849,1.8853,1.8855,1.8856,1.9043,1.9046,0,0,0,0,0,0,1.8786,1.879,1.8851,1.8853,1.8796,1.8812,1.8813,1.883,1.8838,1.8837,1.8814,1.8809,1.884,1.8844,1.8849,1.8936,1.8853,1.8857,1.8859,1.9041,1.9044,1.9047,0,0,0,0,0,0,1.8785,1.8792,1.885,1.882,1.8827,1.8816,1.8835,1.8832,1.8843,1.8839,1.8837,1.8828,1.8838,1.8844,1.8897,1.8936,1.8858,1.8861,1.9037,1.9042,1.9046,1.911,0,0,0,0,0,0,1.8782,1.8792,1.8819,1.8821,1.8828,1.8896,1.8838,1.8834,1.8849,1.8843,1.8851,1.885,1.8837,1.8892,1.89,1.8939,1.8864,1.9034,1.9039,1.9044,1.9105,1.9116,1.9126,0,0,0,0,0,1.8779,1.8838,1.8821,1.8828,1.8862,1.8898,1.8903,1.8884,1.8852,1.888,1.8877,1.885,1.8931,1.8898,1.8907,1.8948,1.9031,1.9038,1.9044,1.91,1.9114,1.9126,0,0,0,0,0,0,1.8843,1.8838,1.8818,1.8879,1.8889,1.8889,1.8923,1.89,1.8921,1.8915,1.8893,1.8895,1.8952,1.8956,1.8919,1.902,1.8976,1.8984,1.9015,1.9028,1.9039,1.9036,1.8867,0,0,0,0,0,1.8863,1.8892,1.8887,1.8941,1.8947,1.8934,1.895,1.8934,1.8945,1.895,1.8951,1.8964,1.8992,1.9011,1.9037,1.9106,1.9106,1.9138,1.9149,1.9158,1.9165,1.9201,1.9214,1.9068,1.9068,1.9068,0,0,1.8907,1.8908,1.8927,1.8953,1.8959,1.899,1.8938,1.8974,1.8997,1.8956,1.9004,1.9006,1.9019,1.9079,1.9106,1.9084,1.9206,1.9166,1.9173,1.9175,1.9208,1.9222,1.9235,1.9072,1.9072,1.9071,0,0,1.9001,1.9005,1.9049,1.9056,1.9065,1.9057,1.9068,1.9071,1.9069,1.9117,1.9087,1.9115,1.9164,1.9174,1.9186,1.9284,1.9259,1.9293,1.9349,1.9384,1.9395,1.9405,1.9439,1.9451,1.9301,1.9301,1.9301,0,1.9054,1.9097,1.9076,1.9112,1.9124,1.9087,1.9132,1.9141,1.9159,1.9169,1.9144,1.9203,1.921,1.9271,1.9295,1.9307,1.9318,1.9291,1.9395,1.9405,1.9414,1.9446,1.9459,1.9305,1.9304,1.9304,1.9304,0,1.9162,1.9193,1.9228,1.9243,1.926,1.9301,1.9286,1.9307,1.929,1.9285,1.9334,1.9341,1.9366,1.938,1.9366,1.944,1.9425,1.9398,1.9353,1.9432,1.9461,1.9474,1.931,1.9309,1.9308,1.9307,0,0,1.9295,1.9297,1.931,1.9316,1.9324,1.9348,1.9388,1.9411,1.9428,1.9443,1.9475,1.9518,1.9492,1.9505,1.9492,1.9523,1.9598,1.9491,1.9491,1.9509,1.9678,1.9697,1.9712,1.9582,1.9585,1.9586,1.9677,0,1.9386,1.9451,1.9433,1.9499,1.9527,1.9492,1.9527,1.9536,1.9532,1.9557,1.9554,1.9583,1.9548,1.9555,1.9585,1.9582,1.9631,1.9576,1.9613,1.9614,1.9608,1.9727,1.9747,1.9832,1.9688,1.969,1.9692,0,1.95,1.9516,1.9585,1.9586,1.9597,1.9629,1.9648,1.9672,1.9682,1.9677,1.9692,1.9672,1.9712,1.9668,1.9723,1.9686,1.9701,1.9702,1.9705,1.9706,1.9656,1.973,1.9859,1.9871,1.971,1.9708,1.9707,0,1.9588,1.9627,1.9672,1.9679,1.9683,1.9706,1.9709,1.9716,1.9731,1.9749,1.9758,1.9782,1.9794,1.9813,1.9801,1.977,1.9858,1.9813,1.9855,1.9855,1.9873,1.9872,2.0004,1.9886,1.9886,1.9886,1.9886,0,1.969,1.9733,1.9711,1.9739,1.9786,1.9766,1.9813,1.9813,1.982,1.9848,1.9821,1.9848,1.9831,1.9857,1.9848,1.9894,1.9901,1.9899,1.9895,1.99,1.99,1.9907,1.99,1.9889,1.9888,1.9888,1.9887,0,1.9794,1.9782,1.9829,1.9828,1.9829,1.9864,1.9864,1.989,1.9885,1.9921,1.9928,1.992,1.9949,1.9939,1.9972,1.9965,2.0024,2.0014,2.0019,2.0016,2.0058,2.0053,2.0198,2.0215,2.0088,2.0089,2.0091,0,1.9859,1.9891,1.9893,1.9909,1.9913,1.9939,1.9953,1.9936,1.9952,1.9966,1.999,2.0017,2.0037,2.0086,2.0084,2.0108,2.0098,2.0147,2.0101,2.0104,2.0096,2.0093,2.0096,2.0155,2.0157,2.0158,2.0159,0,1.9975,1.9967,1.9987,2.0006,2.0023,2.0038,2.005,2.0065,2.0048,2.0068,2.0096,2.0112,2.0143,2.017,2.0192,2.0197,2.0175,2.0174,2.0184,2.0188,2.0189,2.0187,2.0042,2.017,2.0169,2.0168,2.0168,2.0167,2.006,2.0085,2.009,2.0114,2.0121,2.0133,2.0157,2.0154,2.0177,2.02,2.0189,2.0222,2.0232,2.0259,2.0267,2.0293,2.0274,2.029,2.0294,2.0297,2.0301,2.0186,2.0297,2.0297,2.0297,2.0296,2.0296,0,2.0172,2.0173,2.0195,2.0212,2.0231,2.0208,2.0221,2.0238,2.0267,2.0277,2.0297,2.033,2.0355,2.0355,2.038,2.0401,2.0391,2.0407,2.0405,2.0406,2.0318,2.0305,2.0414,2.0414,2.0414,2.0414,2.0414,2.0414,2.0232,2.0274,2.0267,2.0312,2.0314,2.0344,2.0353,2.0364,2.0372,2.0409,2.0429,2.0429,2.0435,2.046,2.0482,2.0482,2.0491,2.0511,2.0507,2.0424,2.0412,2.0401,2.0389,2.0514,2.0514,2.0592,2.0593,2.0593]},{"header":{"parameterUnit":"m.s-1","parameterCategory":1,"la1":30.2991,"la2":30.254,"lo1":-89.0895,"lo2":-89.0444,"dy":0.0017,"dx":0.0017,"nx":28,"ny":28,"refTime":"2024-08-02T09:00:00:Z","depth":0,"parameterNumber":3,"parameterNumberName":"V-component_of_WINDS"},"data":[0,0,0,0,0,0,0,0,0,0,0,0,0,0,0,0,0,0,0,0,0,0,0,0,0,0,0,0,0,0,0,0,0,0,0,0,0,0,0,0,0,0,0,0,0,0,0,0,0,0,0,0,0,0,0,0,0,0,3.1386,3.1387,0,3.1463,3.1464,3.1465,3.1467,3.1466,3.1465,3.1465,3.1536,3.1539,3.1541,0,0,0,0,0,0,0,0,0,0,0,0,0,3.1232,3.1235,3.1386,3.1387,3.1388,3.1463,3.1464,3.1465,3.1467,3.1466,3.1465,3.1464,3.1535,3.1538,3.1542,0,0,0,0,0,0,0,0,0,0,0,0,0,3.1303,3.1236,3.1386,3.1398,3.14,3.1463,3.1464,3.1466,3.1468,3.1466,3.1465,3.1464,3.1534,3.1538,3.1542,3.1595,0,0,3.1555,3.1556,0,0,0,0,0,0,0,0,3.1299,3.1309,3.1395,3.1398,3.14,3.1454,3.1436,3.1509,3.1468,3.1442,3.1464,3.1463,3.1509,3.1515,3.1533,3.1599,3.1602,3.1555,3.1557,3.1559,3.156,0,0,0,0,0,0,0,3.1294,3.1305,3.1416,3.1397,3.1399,3.1397,3.1406,3.145,3.1482,3.1444,3.1444,3.1454,3.151,3.1529,3.1534,3.1603,3.1555,3.1559,3.1561,3.1563,3.1715,3.1716,0,0,0,0,0,0,3.1288,3.1301,3.1414,3.1419,3.1345,3.1401,3.1411,3.1438,3.1482,3.1487,3.1455,3.1454,3.1522,3.153,3.1537,3.1602,3.1559,3.1563,3.1565,3.1713,3.1715,3.1717,0,0,0,0,0,0,3.1284,3.1298,3.1411,3.136,3.1374,3.1405,3.1436,3.144,3.1459,3.149,3.1495,3.1469,3.1522,3.1531,3.1581,3.1604,3.1565,3.1569,3.1711,3.1714,3.1716,3.1731,0,0,0,0,0,0,3.128,3.1297,3.1319,3.1361,3.1377,3.1456,3.1438,3.1443,3.1467,3.1466,3.1504,3.1509,3.1521,3.1575,3.1585,3.1609,3.1572,3.1709,3.1712,3.1715,3.1729,3.1734,3.1738,0,0,0,0,0,3.1275,3.1319,3.132,3.1334,3.1406,3.1457,3.1466,3.1482,3.1469,3.149,3.151,3.1508,3.16,3.158,3.1591,3.1617,3.1708,3.1711,3.1715,3.1727,3.1733,3.1738,0,0,0,0,0,0,3.1276,3.1324,3.1327,3.1386,3.1418,3.1458,3.1485,3.1488,3.1522,3.1519,3.1534,3.1543,3.1592,3.161,3.1586,3.167,3.1652,3.1658,3.1657,3.1663,3.1668,3.1662,3.1575,0,0,0,0,0,3.1284,3.1324,3.1363,3.1412,3.1428,3.1454,3.1477,3.1486,3.1518,3.1531,3.1555,3.1584,3.1619,3.1642,3.1677,3.1732,3.1739,3.1755,3.1759,3.1763,3.1768,3.1797,3.1804,3.1728,3.1728,3.1728,0,0,3.1299,3.1331,3.1355,3.1413,3.1439,3.1477,3.1465,3.1507,3.1535,3.1536,3.1586,3.1604,3.1637,3.169,3.1714,3.1706,3.179,3.1768,3.177,3.1773,3.1801,3.1808,3.1815,3.1731,3.173,3.173,0,0,3.1347,3.1376,3.142,3.1446,3.1487,3.1504,3.1514,3.1554,3.1567,3.1617,3.1619,3.1651,3.1712,3.1736,3.1756,3.1813,3.1812,3.1824,3.1848,3.1876,3.1882,3.1888,3.1907,3.1914,3.1829,3.1829,3.1829,0,3.1361,3.1422,3.1441,3.1483,3.1508,3.1514,3.1557,3.1581,3.1629,3.1644,3.1635,3.1712,3.1735,3.1793,3.1807,3.1823,3.1834,3.1819,3.188,3.1886,3.1891,3.191,3.1917,3.183,3.183,3.183,3.1829,0,3.1436,3.1478,3.1508,3.1558,3.1586,3.1628,3.165,3.1676,3.1683,3.17,3.175,3.1778,3.1818,3.1833,3.1838,3.1891,3.1885,3.1878,3.186,3.1899,3.1917,3.1924,3.1832,3.1831,3.1831,3.183,0,0,3.1487,3.1547,3.1558,3.158,3.1625,3.1656,3.1698,3.174,3.1761,3.1793,3.1827,3.1879,3.1873,3.1896,3.1904,3.1929,3.1972,3.1919,3.192,3.1927,3.203,3.2034,3.2042,3.1971,3.1973,3.1974,3.2027,0,3.1539,3.1617,3.1634,3.1699,3.1738,3.1744,3.178,3.181,3.1827,3.186,3.1877,3.1914,3.1904,3.1917,3.1943,3.1961,3.1992,3.1958,3.2001,3.2002,3.1992,3.2052,3.2057,3.2105,3.2034,3.2035,3.2036,0,3.1611,3.1648,3.1718,3.1758,3.1774,3.1807,3.1846,3.1878,3.1911,3.1922,3.1948,3.1954,3.1995,3.1975,3.2031,3.2007,3.2025,3.2037,3.2039,3.2043,3.2021,3.2056,3.2121,3.2128,3.2047,3.2046,3.2045,0,3.1639,3.1707,3.1758,3.1776,3.1824,3.1847,3.1867,3.1899,3.1923,3.1957,3.1972,3.2009,3.2029,3.2056,3.2071,3.2056,3.2124,3.2106,3.2132,3.2132,3.2146,3.2145,3.2214,3.2159,3.2159,3.2159,3.2159,0,3.1696,3.1738,3.1771,3.1802,3.1849,3.1868,3.1913,3.1933,3.1961,3.1994,3.2001,3.2031,3.2049,3.2081,3.2093,3.2136,3.2145,3.2153,3.2155,3.2152,3.2151,3.2164,3.216,3.2161,3.216,3.216,3.216,0,3.1735,3.176,3.1815,3.1857,3.1868,3.1901,3.1935,3.1964,3.1981,3.2023,3.2033,3.206,3.2098,3.2116,3.2162,3.217,3.2219,3.222,3.2209,3.221,3.2234,3.2231,3.2313,3.2324,3.2263,3.2264,3.2264,0,3.1769,3.1802,3.1848,3.1873,3.1894,3.1932,3.1958,3.1977,3.2002,3.2043,3.2066,3.2105,3.2138,3.2198,3.2219,3.2255,3.2255,3.2282,3.226,3.2256,3.2255,3.2252,3.2255,3.2285,3.2286,3.2286,3.2286,0,3.1827,3.1837,3.1875,3.1917,3.1947,3.198,3.2013,3.2031,3.2055,3.2083,3.2124,3.2149,3.2197,3.2235,3.2272,3.229,3.2292,3.2293,3.2301,3.2297,3.229,3.2293,3.2218,3.2291,3.229,3.229,3.229,3.229,3.1864,3.1893,3.1931,3.1972,3.1999,3.2029,3.2059,3.2081,3.2116,3.2159,3.2168,3.221,3.2241,3.2292,3.2311,3.2343,3.2336,3.2348,3.235,3.2353,3.2354,3.2286,3.2349,3.2349,3.2349,3.2349,3.2349,0,3.1921,3.1946,3.1984,3.203,3.2062,3.2064,3.21,3.2125,3.2164,3.2194,3.2227,3.2273,3.2309,3.2335,3.2371,3.2392,3.2393,3.2401,3.2399,3.2403,3.2358,3.2347,3.2399,3.2399,3.2399,3.2399,3.2399,3.2399,3.1954,3.2004,3.2019,3.2082,3.2105,3.215,3.217,3.2197,3.2221,3.2273,3.2305,3.2322,3.235,3.2389,3.2422,3.2428,3.2441,3.2448,3.2454,3.2411,3.2406,3.2401,3.2391,3.2451,3.2451,3.2497,3.2497,3.2497]}]]